Kokomo, IN

8:58 PM EDT on March 29, 2017 (GMT -0400)
Kokomo Municipal

Weather History for KOKK - December, 2013

Change the Weather History Date:

Saturday, December 14, 2013

  Actual Average (KGUS) Record (KGUS)
Temperature  
Mean Temperature 28 °F -  
Max Temperature 32 °F 35 °F 64 °F (2015)
Min Temperature 24 °F 24 °F 0 °F (2016)
Degree Days  
Heating Degree Days 37    
Moisture  
Dew Point 26 °F    
Average Humidity 90    
Maximum Humidity 100    
Minimum Humidity 80    
Precipitation  
Precipitation 0.24 in - - ()
Sea Level Pressure  
Sea Level Pressure 29.89 in    
Wind  
Wind Speed 11 mph (NE)    
Max Wind Speed 16 mph    
Max Gust Speed 21 mph    
Visibility 4 miles    
Events      
Averages and records for this station are not official NWS values.
T = Trace of Precipitation, MM = Missing Value Source: NWS Daily Summary

Daily Weather History Graph

Daily Weather History Graph

Search for Another Location

Airport or City:

Trip Planner

Search our weather history database for the weather conditions in past years. The results will help you decide how hot, cold, wet, or windy it might be!

Date:

Astronomy

Dec. 14, 2013 Rise Set
Actual Time 7:00 AM CST 4:18 PM CST
Civil Twilight 6:29 AM CST 4:48 PM CST
Nautical Twilight 5:54 AM CST 5:23 PM CST
Astronomical Twilight 5:21 AM CST 5:56 PM CST
Moon 2:39 PM CST (12/14) 4:19 AM CST (12/14)
Length of Visible Light 10h 19m
Length of Day
9h 18m
Waxing Gibbous, 94% of the Moon is Illuminated
Dec 14
Waxing Gibbous
Dec 17
Full
Dec 25
Last Quarter
Jan 1
New
Jan 7
First Quarter

Hourly Weather History & Observations

Time (CST) Temp. Windchill Dew Point Humidity Pressure Visibility Wind Dir Wind Speed Gust Speed Precip Events Conditions
12:15 AM 30.2 °F 20.8 °F 28.4 °F 93% 30.08 in 8.0 mi SE 11.5 mph - N/A   Overcast
12:35 AM 30.2 °F 22.6 °F 28.4 °F 93% 30.08 in 7.0 mi ESE 8.1 mph - 0.01 in   Mostly Cloudy
12:55 AM 30.2 °F 22.6 °F 28.4 °F 93% 30.07 in 3.0 mi ESE 8.1 mph - 0.01 in   Mostly Cloudy
1:15 AM 30.2 °F 22.6 °F 28.4 °F 93% 30.06 in 1.8 mi East 8.1 mph - N/A   Overcast
1:35 AM 30.2 °F 21.9 °F 30.2 °F 100% 30.08 in 3.0 mi ESE 9.2 mph - N/A   Overcast
1:55 AM 30.2 °F 22.6 °F 30.2 °F 100% 30.07 in 1.5 mi East 8.1 mph - N/A   Overcast
2:15 AM 30.2 °F 22.6 °F 28.4 °F 93% 30.06 in 4.0 mi East 8.1 mph - N/A   Overcast
2:35 AM 30.2 °F 21.3 °F 28.4 °F 93% 30.05 in 2.0 mi East 10.4 mph - N/A   Overcast
2:55 AM 30.2 °F 21.3 °F 30.2 °F 100% 30.05 in 2.5 mi East 10.4 mph - 0.01 in   Overcast
3:15 AM 30.2 °F 21.3 °F 28.4 °F 93% 30.02 in 3.0 mi East 10.4 mph - N/A   Overcast
3:35 AM 30.2 °F 20.2 °F 30.2 °F 100% 30.02 in 4.0 mi East 12.7 mph - 0.01 in   Overcast
3:55 AM 32.0 °F 23.6 °F 30.2 °F 93% 30.02 in 3.0 mi ESE 10.4 mph - 0.01 in   Overcast
4:15 AM 32.0 °F 22.5 °F 30.2 °F 93% 30.00 in 2.0 mi ESE 12.7 mph - 0.01 in   Overcast
4:35 AM 32.0 °F 23.0 °F 30.2 °F 93% 29.99 in 2.5 mi East 11.5 mph - 0.01 in   Overcast
4:55 AM 32.0 °F 23.0 °F 30.2 °F 93% 29.98 in 3.0 mi ESE 11.5 mph - 0.02 in   Overcast
5:15 AM 32.0 °F 23.0 °F 30.2 °F 93% 29.98 in 3.0 mi ESE 11.5 mph - 0.01 in   Overcast
5:35 AM 32.0 °F 22.5 °F 30.2 °F 93% 29.96 in 2.5 mi East 12.7 mph - 0.01 in   Overcast
5:55 AM 32.0 °F 23.0 °F 30.2 °F 93% 29.96 in 1.8 mi East 11.5 mph - 0.01 in   Overcast
6:15 AM 32.0 °F 22.5 °F 30.2 °F 93% 29.96 in 1.8 mi East 12.7 mph 17.3 mph N/A   Overcast
6:35 AM 32.0 °F 22.1 °F 30.2 °F 93% 29.95 in 2.0 mi East 13.8 mph - 0.01 in   Overcast
6:55 AM 32.0 °F 22.5 °F 30.2 °F 93% 29.94 in 1.5 mi East 12.7 mph - 0.01 in   Overcast
7:15 AM 32.0 °F 23.0 °F 30.2 °F 93% 29.93 in 1.0 mi East 11.5 mph - N/A   Overcast
7:35 AM 32.0 °F 23.0 °F 30.2 °F 93% 29.93 in 0.8 mi East 11.5 mph - 0.01 in   Overcast
7:55 AM 32.0 °F 22.1 °F 30.2 °F 93% 29.92 in 0.8 mi East 13.8 mph - 0.01 in   Overcast
8:15 AM 32.0 °F 22.1 °F 30.2 °F 93% 29.92 in 0.8 mi East 13.8 mph - N/A   Overcast
8:35 AM 32.0 °F 22.1 °F 30.2 °F 93% 29.91 in 1.0 mi East 13.8 mph - 0.01 in   Overcast
8:55 AM 30.2 °F 18.9 °F 28.4 °F 93% 29.90 in 0.8 mi ENE 16.1 mph - 0.03 in   Overcast
9:15 AM 30.2 °F 19.8 °F 28.4 °F 93% 29.90 in 0.8 mi ENE 13.8 mph - 0.01 in   Overcast
9:35 AM 30.2 °F 20.2 °F 28.4 °F 93% 29.89 in 0.8 mi East 12.7 mph - 0.01 in   Overcast
9:55 AM 28.4 °F 17.0 °F 26.6 °F 93% 29.88 in 0.8 mi ENE 15.0 mph - 0.01 in   Overcast
10:15 AM 28.4 °F 17.0 °F 26.6 °F 93% 29.87 in 0.8 mi ENE 15.0 mph - N/A   Overcast
10:35 AM 28.4 °F 17.0 °F 26.6 °F 93% 29.85 in 0.8 mi ENE 15.0 mph - N/A   Overcast
10:55 AM 28.4 °F 17.5 °F 28.4 °F 100% 29.84 in 0.5 mi ENE 13.8 mph - 0.01 in   Overcast
11:15 AM 28.4 °F 18.0 °F 28.4 °F 100% 29.82 in 0.5 mi ENE 12.7 mph - N/A   Overcast
11:35 AM 28.4 °F 18.0 °F 26.6 °F 93% 29.81 in 0.5 mi ENE 12.7 mph - 0.01 in   Overcast
11:55 AM 30.2 °F 20.2 °F 28.4 °F 93% 29.80 in 0.5 mi ENE 12.7 mph - 0.01 in   Overcast
12:15 PM 30.2 °F 20.2 °F 26.6 °F 86% 29.78 in 0.5 mi NE 12.7 mph - 0.01 in   Overcast
12:35 PM 30.2 °F 20.2 °F 28.4 °F 93% 29.77 in 0.5 mi NE 12.7 mph - 0.01 in   Overcast
12:55 PM 30.2 °F 20.8 °F 28.4 °F 93% 29.77 in 0.8 mi NE 11.5 mph - 0.01 in   Overcast
1:15 PM 30.2 °F 21.9 °F 26.6 °F 86% 29.76 in 1.0 mi NE 9.2 mph - 0.03 in   Overcast
1:35 PM 30.2 °F 20.8 °F 28.4 °F 93% 29.76 in 1.2 mi NNE 11.5 mph - 0.07 in   Overcast
1:55 PM 30.2 °F 20.2 °F 28.4 °F 93% 29.75 in 1.2 mi NNE 12.7 mph - 0.08 in   Overcast
2:15 PM 30.2 °F 20.8 °F 26.6 °F 86% 29.75 in 1.0 mi NNE 11.5 mph - 0.01 in   Overcast
2:35 PM 30.2 °F 20.2 °F 26.6 °F 86% 29.77 in 1.0 mi NNE 12.7 mph - 0.01 in   Overcast
2:55 PM 28.4 °F 18.0 °F 24.8 °F 86% 29.77 in 2.0 mi North 12.7 mph - 0.01 in   Overcast
3:15 PM 28.4 °F 18.0 °F 26.6 °F 93% 29.77 in 2.5 mi NNE 12.7 mph - N/A   Overcast
3:35 PM 28.4 °F 18.0 °F 24.8 °F 86% 29.78 in 5.0 mi NNE 12.7 mph - N/A   Overcast
3:55 PM 28.4 °F 18.5 °F 24.8 °F 86% 29.78 in 3.0 mi NNE 11.5 mph - N/A   Overcast
4:15 PM 28.4 °F 18.5 °F 24.8 °F 86% 29.79 in 3.0 mi North 11.5 mph - N/A   Overcast
4:35 PM 26.6 °F 15.7 °F 23.0 °F 86% 29.79 in 5.0 mi North 12.7 mph - N/A   Overcast
4:55 PM 28.4 °F 18.5 °F 24.8 °F 86% 29.80 in 7.0 mi North 11.5 mph - N/A   Overcast
5:15 PM 26.6 °F 16.8 °F 23.0 °F 86% 29.81 in 10.0 mi North 10.4 mph - N/A   Overcast
5:35 PM 26.6 °F 17.5 °F 24.8 °F 93% 29.81 in 10.0 mi North 9.2 mph - N/A   Overcast
5:55 PM 26.6 °F 16.2 °F 24.8 °F 93% 29.82 in 10.0 mi NNW 11.5 mph - N/A   Overcast
6:15 PM 26.6 °F 17.5 °F 23.0 °F 86% 29.82 in 10.0 mi NNW 9.2 mph - N/A   Overcast
6:35 PM 26.6 °F 17.5 °F 24.8 °F 93% 29.83 in 9.0 mi NNW 9.2 mph - N/A   Overcast
6:55 PM 26.6 °F 15.7 °F 21.2 °F 80% 29.84 in 9.0 mi NNW 12.7 mph - N/A   Overcast
7:15 PM 26.6 °F 15.7 °F 23.0 °F 86% 29.85 in 10.0 mi NNW 12.7 mph - N/A   Overcast
7:35 PM 26.6 °F 16.2 °F 21.2 °F 80% 29.85 in 10.0 mi NW 11.5 mph - N/A   Overcast
7:55 PM 24.8 °F 14.0 °F 21.2 °F 86% 29.86 in 10.0 mi NNW 11.5 mph - N/A   Overcast
8:15 PM 24.8 °F 12.4 °F 21.2 °F 86% 29.87 in 10.0 mi NNW 15.0 mph - N/A   Overcast
8:35 PM 24.8 °F 13.4 °F 19.4 °F 80% 29.87 in 10.0 mi NNW 12.7 mph - N/A   Overcast
8:55 PM 24.8 °F 13.4 °F 19.4 °F 80% 29.88 in 10.0 mi NNW 12.7 mph - N/A   Overcast
9:15 PM 24.8 °F 14.6 °F 21.2 °F 86% 29.88 in 10.0 mi NW 10.4 mph - N/A   Overcast
9:35 PM 24.8 °F 12.4 °F 19.4 °F 80% 29.89 in 10.0 mi NW 15.0 mph - N/A   Overcast
9:55 PM 24.8 °F 13.4 °F 19.4 °F 80% 29.89 in 10.0 mi NW 12.7 mph - N/A   Overcast
10:15 PM 24.8 °F 13.4 °F 21.2 °F 86% 29.90 in 10.0 mi NW 12.7 mph 17.3 mph N/A   Overcast
10:35 PM 24.8 °F 13.4 °F 19.4 °F 80% 29.90 in 10.0 mi NW 12.7 mph 20.7 mph N/A   Overcast
10:55 PM 24.8 °F 13.4 °F 19.4 °F 80% 29.91 in 10.0 mi NW 12.7 mph 16.1 mph N/A   Overcast
11:15 PM 24.8 °F 13.4 °F 21.2 °F 86% 29.91 in 10.0 mi NW 12.7 mph 16.1 mph N/A   Overcast
11:35 PM 24.8 °F 14.0 °F 21.2 °F 86% 29.91 in 10.0 mi NW 11.5 mph - N/A   Overcast
11:55 PM 24.8 °F 14.0 °F 21.2 °F 86% 29.90 in 10.0 mi NW 11.5 mph - N/A   Overcast